EN

Hourly Weather Altavilla Milicia

Today, 25 January, Monday

Time Temperature Precipitation Wind Pressure Humidity
00:00 +7°C° 0 mm 6 mps 742 mmHg 83%
01:00 +6°C° 0 mm 5 mps 742 mmHg 83%
02:00 +6°C° 0 mm 5 mps 743 mmHg 83%
03:00 +6°C° 0 mm 4 mps 743 mmHg 83%
04:00 +5°C° 0 mm 4 mps 744 mmHg 83%
05:00 +5°C° 0 mm 4 mps 744 mmHg 82%
06:00 +5°C° 0 mm 4 mps 744 mmHg 82%
07:00 +5°C° 0 mm 4 mps 744 mmHg 82%
08:00 +7°C° 0 mm 4 mps 744 mmHg 79%
09:00 +8°C° 0 mm 4 mps 745 mmHg 75%
10:00 +11°C° 0 mm 4 mps 745 mmHg 72%
11:00 +11°C° 0 mm 4 mps 745 mmHg 71%
12:00 +12°C° 0 mm 5 mps 744 mmHg 70%
13:00 +13°C° 0 mm 5 mps 744 mmHg 68%
14:00 +13°C° 0 mm 5 mps 744 mmHg 70%
15:00 +13°C° 0 mm 5 mps 743 mmHg 72%
16:00 +13°C° 0 mm 5 mps 743 mmHg 74%
17:00 +12°C° 0 mm 5 mps 743 mmHg 80%
18:00 +10°C° 0 mm 5 mps 743 mmHg 86%
19:00 +9°C° 0 mm 5 mps 742 mmHg 91%
20:00 +9°C° 0.1 mm 5 mps 743 mmHg 92%
21:00 +10°C° 0.1 mm 5 mps 743 mmHg 92%
22:00 +10°C° 0.1 mm 5 mps 743 mmHg 92%
23:00 +10°C° 0.5 mm 5 mps 742 mmHg 93%

Tomorrow, 26 January, Tuesday

Time Temperature Precipitation Wind Pressure Humidity
00:00 +11°C° 0.5 mm 4 mps 742 mmHg 93%
01:00 +11°C° 0.5 mm 4 mps 741 mmHg 94%
02:00 +11°C° 1.1 mm 4 mps 740 mmHg 94%
03:00 +11°C° 1.1 mm 4 mps 739 mmHg 95%
04:00 +11°C° 1.1 mm 4 mps 739 mmHg 95%
05:00 +10°C° 4.7 mm 5 mps 739 mmHg 96%
06:00 +10°C° 4.7 mm 6 mps 739 mmHg 96%
07:00 +10°C° 4.7 mm 6 mps 739 mmHg 97%
08:00 +9°C° 1 mm 6 mps 739 mmHg 93%
09:00 +9°C° 1 mm 5 mps 740 mmHg 90%
10:00 +8°C° 1 mm 5 mps 740 mmHg 86%
11:00 +8°C° 0.1 mm 7 mps 741 mmHg 79%
12:00 +8°C° 0.1 mm 9 mps 741 mmHg 73%
13:00 +8°C° 0.1 mm 10 mps 742 mmHg 66%
14:00 +7°C° 0.1 mm 10 mps 742 mmHg 66%
15:00 +7°C° 0.1 mm 11 mps 743 mmHg 66%
16:00 +6°C° 0.1 mm 11 mps 744 mmHg 66%
17:00 +6°C° 0.1 mm 9 mps 744 mmHg 68%
18:00 +5°C° 0.1 mm 8 mps 745 mmHg 69%
19:00 +5°C° 0.1 mm 7 mps 746 mmHg 71%
20:00 +5°C° 0 mm 7 mps 746 mmHg 69%
21:00 +5°C° 0 mm 6 mps 747 mmHg 68%
22:00 +4°C° 0 mm 6 mps 747 mmHg 67%
23:00 +4°C° 0 mm 6 mps 747 mmHg 67%

Day after tomorrow, 27 January, Wednesday

Time Temperature Precipitation Wind Pressure Humidity
00:00 +5°C° 0 mm 5 mps 747 mmHg 67%
01:00 +5°C° 0 mm 5 mps 747 mmHg 68%
02:00 +3°C° 0 mm 5 mps 747 mmHg 67%
03:00 +4°C° 0 mm 4 mps 747 mmHg 67%
04:00 +4°C° 0 mm 4 mps 747 mmHg 67%
05:00 +4°C° 0 mm 4 mps 747 mmHg 67%
06:00 +4°C° 0 mm 4 mps 747 mmHg 68%
07:00 +4°C° 0 mm 4 mps 747 mmHg 69%
08:00 +5°C° 0.1 mm 4 mps 747 mmHg 69%
09:00 +7°C° 0.1 mm 5 mps 748 mmHg 69%
10:00 +8°C° 0.1 mm 6 mps 748 mmHg 69%
11:00 +9°C° 0 mm 6 mps 748 mmHg 64%
12:00 +9°C° 0 mm 5 mps 748 mmHg 60%
13:00 +9°C° 0 mm 5 mps 748 mmHg 55%
14:00 +10°C° 0 mm 4 mps 748 mmHg 58%
15:00 +10°C° 0 mm 4 mps 748 mmHg 60%
16:00 +8°C° 0 mm 4 mps 748 mmHg 62%
17:00 +8°C° 0 mm 3 mps 748 mmHg 68%
18:00 +7°C° 0 mm 2 mps 748 mmHg 73%
19:00 +6°C° 0 mm 2 mps 749 mmHg 78%
20:00 +6°C° 0 mm 2 mps 749 mmHg 78%
21:00 +6°C° 0 mm 2 mps 749 mmHg 78%
22:00 +6°C° 0 mm 2 mps 749 mmHg 77%
23:00 +6°C° 0 mm 2 mps 749 mmHg 78%

28 January, Thursday

Time Temperature Precipitation Wind Pressure Humidity
00:00 +5°C° 0 mm 2 mps 749 mmHg 78%
01:00 +5°C° 0 mm 2 mps 750 mmHg 79%
02:00 +5°C° 0 mm 2 mps 749 mmHg 78%
03:00 +5°C° 0 mm 2 mps 749 mmHg 78%
04:00 +4°C° 0 mm 2 mps 749 mmHg 78%
05:00 +4°C° 0 mm 2 mps 749 mmHg 78%
06:00 +4°C° 0 mm 2 mps 749 mmHg 78%
07:00 +5°C° 0 mm 1 mps 750 mmHg 77%
08:00 +7°C° 0 mm 1 mps 750 mmHg 72%
09:00 +9°C° 0 mm 1 mps 750 mmHg 66%
10:00 +11°C° 0 mm 1 mps 751 mmHg 61%
11:00 +12°C° 0 mm 1 mps 751 mmHg 58%
12:00 +13°C° 0 mm 1 mps 750 mmHg 55%
13:00 +14°C° 0 mm 2 mps 750 mmHg 52%
14:00 +13°C° 0 mm 1 mps 750 mmHg 58%
15:00 +13°C° 0 mm 1 mps 750 mmHg 64%
16:00 +13°C° 0 mm 1 mps 749 mmHg 70%
17:00 +12°C° 0 mm 2 mps 749 mmHg 74%
18:00 +12°C° 0 mm 2 mps 749 mmHg 79%
19:00 +10°C° 0 mm 2 mps 749 mmHg 84%
20:00 +10°C° 0 mm 3 mps 749 mmHg 87%
21:00 +10°C° 0 mm 4 mps 749 mmHg 90%
22:00 +10°C° 0 mm 4 mps 749 mmHg 93%
23:00 +9°C° 0 mm 5 mps 749 mmHg 93%

29 January, Friday

Time Temperature Precipitation Wind Pressure Humidity
00:00 +10°C° 0 mm 5 mps 748 mmHg 93%
01:00 +10°C° 0 mm 5 mps 748 mmHg 92%
02:00 +10°C° 0 mm 5 mps 748 mmHg 92%
03:00 +10°C° 0 mm 5 mps 748 mmHg 92%
04:00 +11°C° 0 mm 4 mps 748 mmHg 92%
05:00 +11°C° 0.1 mm 4 mps 748 mmHg 93%
06:00 +11°C° 0.1 mm 4 mps 748 mmHg 94%
07:00 +12°C° 0.1 mm 4 mps 749 mmHg 95%
08:00 +13°C° 0 mm 4 mps 749 mmHg 90%
09:00 +14°C° 0 mm 4 mps 749 mmHg 84%
10:00 +15°C° 0 mm 4 mps 749 mmHg 79%
11:00 +17°C° 0 mm 4 mps 749 mmHg 75%
12:00 +18°C° 0 mm 3 mps 749 mmHg 70%
13:00 +18°C° 0 mm 3 mps 749 mmHg 66%
14:00 +18°C° 0 mm 3 mps 749 mmHg 70%
15:00 +18°C° 0 mm 3 mps 749 mmHg 74%
16:00 +18°C° 0 mm 3 mps 749 mmHg 79%
17:00 +16°C° 0 mm 3 mps 748 mmHg 82%
18:00 +14°C° 0 mm 3 mps 748 mmHg 85%
19:00 +13°C° 0 mm 2 mps 748 mmHg 89%
20:00 +12°C° 0 mm 3 mps 748 mmHg 86%
21:00 +12°C° 0 mm 3 mps 748 mmHg 84%
22:00 +12°C° 0 mm 3 mps 748 mmHg 82%
23:00 +12°C° 0 mm 3 mps 748 mmHg 82%

30 January, Saturday

Time Temperature Precipitation Wind Pressure Humidity
00:00 +12°C° 0 mm 4 mps 748 mmHg 82%
01:00 +12°C° 0 mm 4 mps 747 mmHg 82%
02:00 +12°C° 0 mm 4 mps 747 mmHg 81%
03:00 +12°C° 0 mm 4 mps 746 mmHg 80%
04:00 +13°C° 0 mm 4 mps 746 mmHg 78%
05:00 +13°C° 0 mm 4 mps 745 mmHg 77%
06:00 +13°C° 0 mm 4 mps 745 mmHg 75%
07:00 +13°C° 0 mm 4 mps 745 mmHg 74%
08:00 +14°C° 0 mm 4 mps 744 mmHg 71%
09:00 +17°C° 0 mm 4 mps 744 mmHg 68%
10:00 +19°C° 0 mm 5 mps 744 mmHg 65%
11:00 +19°C° 0 mm 4 mps 743 mmHg 63%
12:00 +20°C° 0 mm 4 mps 743 mmHg 61%
13:00 +21°C° 0 mm 4 mps 742 mmHg 59%
14:00 +20°C° 0 mm 3 mps 742 mmHg 63%
15:00 +20°C° 0 mm 3 mps 741 mmHg 67%
16:00 +19°C° 0 mm 3 mps 741 mmHg 71%
17:00 +17°C° 0 mm 3 mps 741 mmHg 73%
18:00 +16°C° 0 mm 3 mps 740 mmHg 75%
19:00 +15°C° 0 mm 2 mps 740 mmHg 76%
20:00 +15°C° 0 mm 2 mps 740 mmHg 75%
21:00 +14°C° 0 mm 2 mps 740 mmHg 74%
22:00 +14°C° 0 mm 2 mps 740 mmHg 72%
23:00 +14°C° 0 mm 2 mps 739 mmHg 73%
Show more